DW9022 Weather Reports


time (UTC)temp
C
wind
direction
speed
KPH
gust
KPH
rain 1hr
cm
rain 24hr
cm
rain mn
cm
humidity
%
barometer
mb
20260510190029 20 130 1.6 12.9 0.00 0.00 0.00 23 1019.8
20260510184600 20 42 4.8 14.5 0.00 0.00 0.00 21 1019.8
20260510183042 20 4 4.8 12.9 0.00 0.00 0.00 21 1019.8
20260510181524 20 27 3.2 17.7 0.00 0.00 0.00 22 1019.9
20260510180026 20 330 4.8 12.9 0.00 0.00 0.00 21 1020.0
20260510174552 20 152 3.2 16.1 0.00 0.00 0.00 22 1020.1
20260510174502 20 245 3.2 16.1 0.00 0.00 0.00 22 1020.1
20260510173006 20 302 1.6 12.9 0.00 0.00 0.00 24 1020.0
20260510171606 20 17 9.7 24.1 0.00 0.00 0.00 23 1020.1
20260510170052 20 227 1.6 12.9 0.00 0.00 0.00 24 1020.4
20260510164605 19 187 4.8 11.3 0.00 0.00 0.00 24 1020.4
20260510163004 19 340 4.8 12.9 0.00 0.00 0.00 25 1020.5
20260510161609 19 264 3.2 11.3 0.00 0.00 0.00 29 1020.5
20260510160032 19 290 3.2 8.0 0.00 0.00 0.00 27 1020.6
20260510154529 18 8 1.6 16.1 0.00 0.00 0.00 33 1020.5
20260510153028 17 15 1.6 12.9 0.00 0.00 0.00 36 1020.1
20260510151518 17 345 4.8 12.9 0.00 0.00 0.00 37 1019.9
20260510150016 16 327 6.4 14.5 0.00 0.00 0.00 36 1019.7
20260510144524 16 63 8.0 12.9 0.00 0.00 0.00 36 1019.3
20260510143026 16 16 3.2 11.3 0.00 0.00 0.00 39 1019.3
20260510141524 16 285 1.6 14.5 0.00 0.00 0.00 43 1019.4
20260510140110 15 332 4.8 14.5 0.00 0.00 0.00 41 1019.4
20260510134605 15 350 6.4 14.5 0.00 0.00 0.00 42 1019.6
20260510133046 14 11 3.2 14.5 0.00 0.00 0.00 44 1019.4
20260510131544 13 322 9.7 16.1 0.00 0.00 0.00 44 1019.0
20260510130058 13 34 4.8 9.7 0.00 0.00 0.00 47 1018.9
20260510124605 13 21 3.2 9.7 0.00 0.00 0.00 50 1018.9
20260510123042 13 5 1.6 8.0 0.00 0.00 0.00 50 1018.6
20260510121534 12 329 0.0 8.0 0.00 0.00 0.00 55 1018.0
20260510120032 11 16 0.0 6.4 0.00 0.00 0.00 58 1017.6
20260510114524 11 356 1.6 6.4 0.00 0.00 0.00 61 1017.3
20260510113052 10 18 0.0 6.4 0.00 0.00 0.00 64 1017.2
20260510111605 10 325 0.0 3.2 0.00 0.00 0.00 64 1017.1
20260510110043 10 23 0.0 0.0 0.00 0.00 0.00 60 1016.8
20260510104534 11 23 0.0 0.0 0.00 0.00 0.00 61 1016.5
20260510103033 11 27 0.0 1.6 0.00 0.00 0.00 60 1016.3
20260510101524 12 29 0.0 0.0 0.00 0.00 0.00 57 1016.1
20260510100018 12 29 0.0 0.0 0.00 0.00 0.00 56 1015.8
20260510094520 12 29 0.0 1.6 0.00 0.00 0.00 57 1015.4
20260510093052 12 15 1.6 8.0 0.00 0.00 0.00 58 1014.6
20260510091552 12 340 1.6 4.8 0.00 0.00 0.00 59 1014.5
20260510090055 13 319 0.0 4.8 0.00 0.00 0.00 58 1014.5
20260510084544 13 7 0.0 3.2 0.00 0.00 0.00 58 1014.4
20260510083036 13 316 0.0 4.8 0.00 0.00 0.00 59 1013.9
20260510081541 13 340 0.0 3.2 0.00 0.00 0.00 59 1013.9
20260510080030 14 340 0.0 4.8 0.00 0.00 0.00 58 1013.8
20260510074534 14 350 0.0 4.8 0.00 0.00 0.00 58 1013.9
20260510073100 14 323 0.0 4.8 0.00 0.00 0.00 60 1013.8
20260510073010 14 340 0.0 4.8 0.00 0.00 0.00 60 1013.7
20260510071506 15 340 0.0 3.2 0.00 0.00 0.00 63 1013.9
20260510070004 15 294 0.0 0.0 0.00 0.03 0.00 62 1013.9
20260510064604 15 294 0.0 0.0 0.00 0.03 0.00 60 1014.0
20260510064504 15 294 0.0 0.0 0.00 0.03 0.00 60 1013.9
20260510063100 15 281 0.0 0.0 0.00 0.03 0.00 64 1014.0
20260510061558 15 281 0.0 0.0 0.00 0.03 0.00 61 1014.1
20260510060032 16 281 0.0 1.6 0.00 0.03 0.00 58 1014.2
20260510054536 16 281 0.0 0.0 0.00 0.03 0.00 56 1013.7
20260510053035 16 281 0.0 0.0 0.00 0.03 0.00 53 1013.4
20260510051536 16 281 0.0 0.0 0.00 0.03 0.00 53 1013.2
20260510050037 17 281 0.0 0.0 0.00 0.03 0.03 51 1013.0
20260510044524 17 281 0.0 4.8 0.00 0.03 0.03 53 1012.7
20260510043022 17 68 0.0 0.0 0.00 0.03 0.03 54 1012.6
20260510041519 17 68 0.0 0.0 0.00 0.03 0.03 50 1012.5
20260510040012 17 68 0.0 1.6 0.00 0.03 0.03 49 1012.2
20260510034521 18 330 0.0 1.6 0.00 0.03 0.03 49 1011.9
20260510033051 18 340 0.0 3.2 0.00 0.03 0.03 49 1011.8
20260510031527 18 302 0.0 1.6 0.00 0.03 0.03 47 1011.8
20260510030035 18 350 0.0 6.4 0.00 0.03 0.03 45 1011.4
20260510024537 18 340 3.2 6.4 0.00 0.03 0.03 44 1011.0
20260510023021 19 336 3.2 12.9 0.00 0.03 0.03 43 1010.5
20260510021524 18 1 4.8 16.1 0.00 0.03 0.03 46 1010.2
20260510020003 17 301 1.6 6.4 0.00 0.03 0.03 64 1009.7
20260510014504 18 248 0.0 3.2 0.00 0.03 0.03 59 1009.1
20260510013009 19 248 0.0 0.0 0.00 0.03 0.03 50 1008.9
20260510011510 20 248 0.0 0.0 0.00 0.03 0.03 46 1008.7
20260510010016 21 248 0.0 0.0 0.00 0.03 0.03 42 1008.6
20260510004516 22 248 0.0 0.0 0.00 0.03 0.03 39 1008.4
20260510003048 22 248 0.0 0.0 0.00 0.03 0.03 38 1008.3
20260510001546 23 248 0.0 0.0 0.00 0.03 0.03 36 1008.1
20260510000057 23 278 0.0 0.0 0.00 0.03 0.03 35 1008.0
20260509234550 23 221 1.6 6.4 0.00 0.05 0.03 32 1008.0
20260509233042 24 233 0.0 3.2 0.00 0.05 0.03 33 1008.1
20260509231541 24 218 1.6 4.8 0.00 0.05 0.03 28 1008.0
20260509230046 24 217 3.2 6.4 0.00 0.28 0.03 29 1008.1
20260509224544 25 231 0.0 6.4 0.00 0.28 0.03 30 1008.0
20260509223044 25 233 4.8 9.7 0.00 0.28 0.03 28 1007.9
20260509221538 25 238 3.2 8.0 0.00 0.28 0.03 30 1007.8
20260509220034 24 217 1.6 8.0 0.00 0.46 0.03 30 1007.9
20260509214534 25 223 3.2 8.0 0.00 0.46 0.03 31 1007.9
20260509213040 25 116 1.6 8.0 0.00 0.46 0.03 32 1007.8
20260509211514 25 249 1.6 11.3 0.00 0.46 0.03 33 1007.8
20260509210020 25 233 1.6 6.4 0.00 0.58 0.03 33 1008.0
20260509204550 25 234 3.2 11.3 0.00 0.58 0.03 35 1008.1
20260509203026 25 232 6.4 11.3 0.00 0.58 0.03 33 1008.4
20260509201521 25 260 3.2 11.3 0.00 0.58 0.03 33 1008.3
20260509200018 26 195 4.8 8.0 0.00 0.61 0.03 34 1008.6
20260509194514 26 320 1.6 6.4 0.00 0.61 0.03 38 1008.6
20260509193012 26 190 1.6 4.8 0.00 0.61 0.03 38 1008.6
20260509191508 25 261 3.2 9.7 0.00 0.61 0.03 38 1008.5